User: anonymous   Login
Location: Oshawa
(43.9000°N, 78.8670°W)
Time: 01:57:42
(UTC-04:00)
Language:

CARTOSAT-1 - Orbit

View from above orbital plane
View from above orbital plane
View from above satellite
View from above satellite

Ground track
Ground track

The orbit data is extracted from the following two-line orbital elements,

1 28649U 05017A   15147.80310330 -.00000144  00000-0 -11225-4 0  9994
2 28649 097.7957 219.5260 0001380 033.9965 326.1407 14.83479762544587
Epoch (UTC): 27 May 2015 19:16:28
Eccentricity: 0.0001380
inclination: 97.7957°
perigee height: 617 km
apogee height: 619 km
right ascension of ascending node: 219.5260°
argument of perigee: 33.9965°
revolutions per day: 14.83479762
mean anomaly at epoch: 326.1407°
orbit number at epoch: 54458

The dashed part of the orbit path shows where the satellite is in the earth's shadow,  

DLR